Worthington, MN

8:48 AM CST on December 04, 2016 (GMT -0600)
Worthington Municipal

Weather History for KOTG - October, 2012

Change the Weather History Date:

Sunday, October 21, 2012

  Actual Average Record
Temperature  
Mean Temperature 54 °F -  
Max Temperature 64 °F 53 °F 82 °F (1978)
Min Temperature 44 °F 35 °F 16 °F (1982)
Degree Days  
Heating Degree Days 11    
Growing Degree Days 4 (Base 50)    
Moisture  
Dew Point 41 °F    
Average Humidity 68    
Maximum Humidity 87    
Minimum Humidity 45    
Precipitation  
Precipitation 0.00 in - - ()
Sea Level Pressure  
Sea Level Pressure 29.78 in    
Wind  
Wind Speed 13 mph (South)    
Max Wind Speed 23 mph    
Max Gust Speed 28 mph    
Visibility 10 miles    
Events      
Averages and records for this station are not official NWS values.
T = Trace of Precipitation, MM = Missing Value Source: NWS Daily Summary

Daily Weather History Graph

Daily Weather History Graph

Search for Another Location

Airport or City:

Trip Planner

Search our weather history database for the weather conditions in past years. The results will help you decide how hot, cold, wet, or windy it might be!

Date:

Astronomy

Oct. 21, 2012 Rise Set
Actual Time 7:44 AM CDT 6:28 PM CDT
Civil Twilight 7:15 AM CDT 6:57 PM CDT
Nautical Twilight 6:41 AM CDT 7:30 PM CDT
Astronomical Twilight 6:08 AM CDT 8:04 PM CDT
Moon 2:09 PM CDT (10/21) No Moon Set
Length of Visible Light 11h 42m
Length of Day
10h 43m
Waxing Crescent, 45% of the Moon is Illuminated
Oct 21
Waxing Crescent
Oct 21
First Quarter
Oct 29
Full
Nov 6
Last Quarter
Nov 13
New

Hourly Weather History & Observations

Time (CDT) Temp. Windchill Dew Point Humidity Pressure Visibility Wind Dir Wind Speed Gust Speed Precip Events Conditions
12:15 AM 46.4 °F 40.1 °F 37.4 °F 71% 29.75 in 10.0 mi South 15.0 mph 19.6 mph N/A   Clear
12:35 AM 46.4 °F 40.4 °F 37.4 °F 71% 29.76 in 10.0 mi South 13.8 mph - N/A   Clear
12:55 AM 46.4 °F 39.8 °F 37.4 °F 71% 29.75 in 10.0 mi South 16.1 mph 21.9 mph N/A   Clear
1:15 AM 46.4 °F 39.5 °F 37.4 °F 71% 29.75 in 10.0 mi South 17.3 mph 20.7 mph N/A   Clear
1:35 AM 46.4 °F 40.1 °F 37.4 °F 71% 29.75 in 10.0 mi SSE 15.0 mph - N/A   Clear
1:55 AM 46.4 °F 40.7 °F 37.4 °F 71% 29.75 in 10.0 mi South 12.7 mph 19.6 mph N/A   Clear
2:15 AM 46.4 °F 40.4 °F 37.4 °F 71% 29.75 in 10.0 mi South 13.8 mph - N/A   Clear
2:35 AM 46.4 °F 40.1 °F 37.4 °F 71% 29.75 in 10.0 mi South 15.0 mph - N/A   Clear
2:55 AM 46.4 °F 41.1 °F 37.4 °F 71% 29.74 in 10.0 mi SSE 11.5 mph - N/A   Clear
3:15 AM 46.4 °F 41.1 °F 37.4 °F 71% 29.74 in 10.0 mi SSE 11.5 mph - N/A   Clear
3:35 AM 44.6 °F 39.7 °F 37.4 °F 76% 29.74 in 10.0 mi SSE 9.2 mph - N/A   Clear
3:55 AM 44.6 °F 39.7 °F 37.4 °F 76% 29.73 in 10.0 mi SSE 9.2 mph - N/A   Clear
4:15 AM 44.6 °F 40.2 °F 37.4 °F 76% 29.73 in 10.0 mi SSE 8.1 mph - N/A   Clear
4:35 AM 44.6 °F 39.7 °F 37.4 °F 76% 29.73 in 10.0 mi SSE 9.2 mph - N/A   Clear
4:55 AM 44.6 °F 40.2 °F 37.4 °F 76% 29.73 in 10.0 mi SSE 8.1 mph - N/A   Clear
5:15 AM 44.6 °F 39.7 °F 37.4 °F 76% 29.73 in 10.0 mi SSE 9.2 mph - N/A   Clear
5:35 AM 44.6 °F 38.8 °F 37.4 °F 76% 29.72 in 10.0 mi SE 11.5 mph - N/A   Clear
5:55 AM 44.6 °F 38.8 °F 37.4 °F 76% 29.72 in 10.0 mi SE 11.5 mph - N/A   Clear
6:15 AM 44.6 °F 38.8 °F 37.4 °F 76% 29.72 in 10.0 mi SSE 11.5 mph - N/A   Clear
6:35 AM 44.6 °F 39.2 °F 37.4 °F 76% 29.71 in 10.0 mi SE 10.4 mph - N/A   Clear
6:55 AM 44.6 °F 38.8 °F 37.4 °F 76% 29.71 in 10.0 mi SSE 11.5 mph - N/A   Clear
7:15 AM 46.4 °F 40.4 °F 37.4 °F 71% 29.71 in 10.0 mi SSE 13.8 mph - N/A   Clear
7:35 AM 46.4 °F 41.1 °F 37.4 °F 71% 29.71 in 10.0 mi SSE 11.5 mph 19.6 mph N/A   Clear
7:55 AM 44.6 °F 38.1 °F 37.4 °F 76% 29.72 in 10.0 mi South 13.8 mph - N/A   Clear
8:15 AM 44.6 °F 37.4 °F 37.4 °F 76% 29.71 in 10.0 mi SSE 16.1 mph 21.9 mph N/A   Clear
8:35 AM 46.4 °F 41.1 °F 37.4 °F 71% 29.72 in 10.0 mi SSE 11.5 mph 17.3 mph N/A   Clear
8:55 AM 46.4 °F 40.4 °F 39.2 °F 76% 29.71 in 10.0 mi SSE 13.8 mph 20.7 mph N/A   Clear
9:15 AM 46.4 °F 39.2 °F 39.2 °F 76% 29.71 in 10.0 mi SSE 18.4 mph 23.0 mph N/A   Clear
9:35 AM 48.2 °F - 41.0 °F 76% 29.72 in 10.0 mi South 16.1 mph 25.3 mph N/A   Clear
9:55 AM 50.0 °F - 42.8 °F 76% 29.71 in 10.0 mi South 17.3 mph 25.3 mph N/A   Clear
10:15 AM 51.8 °F - 42.8 °F 71% 29.72 in 10.0 mi South 21.9 mph - N/A   Clear
10:35 AM 53.6 °F - 42.8 °F 67% 29.72 in 10.0 mi South 23.0 mph 27.6 mph N/A   Clear
10:55 AM 55.4 °F - 44.6 °F 67% 29.72 in 10.0 mi South 23.0 mph - N/A   Clear
11:15 AM 57.2 °F - 46.4 °F 67% 29.72 in 10.0 mi SSW 21.9 mph 25.3 mph N/A   Clear
11:35 AM 57.2 °F - 46.4 °F 67% 29.73 in 10.0 mi SSW 21.9 mph 25.3 mph N/A   Clear
11:55 AM 57.2 °F - 44.6 °F 63% 29.76 in 10.0 mi WSW 11.5 mph 24.2 mph N/A   Clear
12:15 PM 60.8 °F - 46.4 °F 59% 29.76 in 10.0 mi SW 16.1 mph - N/A   Clear
12:35 PM 60.8 °F - 44.6 °F 55% 29.76 in 10.0 mi SW 15.0 mph - N/A   Clear
12:55 PM 62.6 °F - 44.6 °F 52% 29.76 in 10.0 mi WSW 11.5 mph 16.1 mph N/A   Clear
1:15 PM 62.6 °F - 44.6 °F 52% 29.77 in 10.0 mi SW 11.5 mph - N/A   Clear
1:35 PM 62.6 °F - 44.6 °F 52% 29.77 in 10.0 mi WSW 10.4 mph - N/A   Clear
1:55 PM 64.4 °F - 44.6 °F 49% 29.77 in 10.0 mi WSW 10.4 mph 16.1 mph N/A   Clear
2:15 PM 64.4 °F - 44.6 °F 49% 29.78 in 10.0 mi WSW 8.1 mph - N/A   Clear
2:35 PM 64.4 °F - 44.6 °F 49% 29.78 in 10.0 mi West 11.5 mph - N/A   Clear
2:55 PM 64.4 °F - 44.6 °F 49% 29.78 in 10.0 mi NW 9.2 mph - N/A   Clear
3:15 PM 64.4 °F - 44.6 °F 49% 29.79 in 10.0 mi NW 6.9 mph - N/A   Clear
3:35 PM 64.4 °F - 44.6 °F 49% 29.79 in 10.0 mi NW 8.1 mph - N/A   Clear
3:55 PM 64.4 °F - 42.8 °F 45% 29.80 in 10.0 mi NNW 5.8 mph - N/A   Clear
4:15 PM 64.4 °F - 44.6 °F 49% 29.80 in 10.0 mi North 6.9 mph - N/A   Clear
4:35 PM 64.4 °F - 44.6 °F 49% 29.81 in 10.0 mi NNW 8.1 mph - N/A   Clear
4:55 PM 64.4 °F - 44.6 °F 49% 29.81 in 10.0 mi NNE 8.1 mph - N/A   Clear
5:15 PM 62.6 °F - 44.6 °F 52% 29.81 in 10.0 mi North 13.8 mph 17.3 mph N/A   Clear
5:35 PM 62.6 °F - 44.6 °F 52% 29.82 in 10.0 mi North 13.8 mph - N/A   Clear
5:55 PM 60.8 °F - 44.6 °F 55% 29.83 in 10.0 mi North 9.2 mph - N/A   Clear
6:15 PM 57.2 °F - 44.6 °F 63% 29.84 in 10.0 mi North 13.8 mph 18.4 mph N/A   Clear
6:35 PM 55.4 °F - 42.8 °F 63% 29.84 in 10.0 mi North 12.7 mph - N/A   Clear
6:55 PM 53.6 °F - 42.8 °F 67% 29.85 in 10.0 mi North 13.8 mph - N/A   Clear
7:15 PM 51.8 °F - 42.8 °F 71% 29.85 in 10.0 mi North 15.0 mph 21.9 mph N/A   Clear
7:35 PM 50.0 °F - 42.8 °F 76% 29.86 in 10.0 mi North 18.4 mph - N/A   Clear
7:55 PM 48.2 °F - 41.0 °F 76% 29.87 in 10.0 mi North 16.1 mph - N/A   Clear
8:15 PM 48.2 °F - 41.0 °F 76% 29.89 in 9.0 mi North 15.0 mph - N/A   Clear
8:35 PM 48.2 °F - 41.0 °F 76% 29.89 in 9.0 mi North 13.8 mph - N/A   Clear
8:55 PM 48.2 °F - 41.0 °F 76% 29.90 in 10.0 mi North 15.0 mph - N/A   Clear
9:15 PM 48.2 °F - 41.0 °F 76% 29.90 in 10.0 mi North 16.1 mph 20.7 mph N/A   Clear
9:35 PM 48.2 °F - 41.0 °F 76% 29.91 in 10.0 mi North 12.7 mph - N/A   Clear
9:55 PM 46.4 °F 41.5 °F 41.0 °F 81% 29.91 in 10.0 mi North 10.4 mph - N/A   Clear
10:15 PM 46.4 °F 41.5 °F 41.0 °F 81% 29.92 in 10.0 mi North 10.4 mph - N/A   Clear
10:35 PM 46.4 °F 42.4 °F 41.0 °F 81% 29.92 in 8.0 mi North 8.1 mph - N/A   Clear
10:55 PM 46.4 °F 42.4 °F 42.8 °F 87% 29.91 in 8.0 mi North 8.1 mph - N/A   Scattered Clouds
11:15 PM 46.4 °F 42.4 °F 41.0 °F 81% 29.92 in 8.0 mi North 8.1 mph - N/A   Mostly Cloudy
11:35 PM 46.4 °F 41.5 °F 41.0 °F 81% 29.91 in 8.0 mi North 10.4 mph - N/A   Scattered Clouds
11:55 PM 46.4 °F 42.4 °F 41.0 °F 81% 29.92 in 9.0 mi North 8.1 mph - N/A   Partly Cloudy